Regional Weather Roundup
Issued by NWS

Home | Current Version | Previous Version | Graphics & Text | Print | Product List | Glossary On
Versions: 1 2 3 4 5 6 7 8 9 10 11 12 13 14 15 16 17 18 19 20 21 22 23 24 25 26 27 28 29 30 31 32 33 34 35 36 37 38 39 40 41 42 43 44 45 46 47 48 49 50
000
ASUS43 KIND 271809
RWRIN

WEATHER ROUNDUP FOR INDIANA
NATIONAL WEATHER SERVICE INDIANAPOLIS IN
200 PM EDT WED JUL 27 2016

NOTE: "FAIR" INDICATES FEW OR NO CLOUDS BELOW 12,000 FEET WITH NO
SIGNIFICANT WEATHER AND/OR OBSTRUCTIONS TO VISIBILITY.

* - STATION DOES NOT REPORT WEATHER SUCH AS PRECIPITATION OR FOG.

+ - STATION NOT QUALITY CONTROLLED BY THE NATIONAL WEATHER SERVICE.
    USE DATA WITH CAUTION...ESPECIALLY DEWPOINT AND RELATIVE
    HUMIDITY OBSERVATIONS.

INZ001>003-010>013-019-020-271900-
NORTHWEST INDIANA

CITY           SKY/WX    TMP DP  RH WIND       PRES   REMARKS
GARY /AIRPORT/ MOSUNNY   86  72  62 N6        30.02F
KNOX *+        SUNNY     82  54  36 CALM      30.02S
LA PORTE +     PTSUNNY   86  67  53 W5        30.03S
6HR MIN TEMP:  71; 6HR MAX TEMP:  87;

MICHIGAN CITY+ SUNNY     84  66  54 N7        30.02F
MONTICELLO +   PTSUNNY   81  64  56 CALM      30.02F
6HR MIN TEMP:  66; 6HR MAX TEMP:  83;

RENSSELAER +   SUNNY     82  64  54 CALM      30.03F
VALPARAISO     PTSUNNY   85  65  51 SW6       30.03S
6HR MIN TEMP:  70; 6HR MAX TEMP:  87;


$$

LMZ046-743>745-271900-
SOUTHERN LAKE MICHIGAN

STATION/POSITION TIME  TEMP    WIND        PRES    WAVE
                       AIR SEA DIR/SP/G            HT
                 (UTC) (F)     (DEG/KT/KT) (MB)    (FT)
BURNS HARBOR     1700   77     360/  5/  6 1017.3R
MICHIGAN CITY    1700   80     330/  5/  5   N/A
5NW MICH CITY    1800   78 78  330/  4/  6   N/A     0

$$

INZ004-005-014>016-021>024-271900-
NORTH CENTRAL INDIANA

CITY           SKY/WX    TMP DP  RH WIND       PRES   REMARKS
ELKHART        SUNNY     84  66  54 CALM      30.02F
GOSHEN         SUNNY     87  56  34 E3        30.01F
6HR MIN TEMP:  66; 6HR MAX TEMP:  87;

LOGANSPORT +   PTSUNNY   82  64  54 CALM      30.03F
PERU/GRISSOM   MOSUNNY   86  64  47 VRB3      30.01F
6HR MIN TEMP:  69; 6HR MAX TEMP:  86;

ROCHESTER +    MOSUNNY   84  68  58 CALM      30.03F
SOUTH BEND     SUNNY     84  65  52 VRB3      30.02F
6HR MIN TEMP:  68; 6HR MAX TEMP:  86;

WARSAW +       SUNNY     82  63  51 NW5       30.02F

$$

INZ006>009-017-018-025>027-271900-
NORTHEAST INDIANA

CITY           SKY/WX    TMP DP  RH WIND       PRES   REMARKS
ANGOLA *+        N/A     88  64  45 S7        30.02F
AUBURN +       PTSUNNY   88  57  35 NW7       30.02F
FORT WAYNE     MOSUNNY   85  58  39 VRB3      30.02F
6HR MIN TEMP:  66; 6HR MAX TEMP:  87;

HUNTINGTON +   MOSUNNY   83  63  50 W3        30.02S
6HR MIN TEMP:  67; 6HR MAX TEMP:  83;


$$

INZ028-029-035-036-043>045-051>053-271900-
WEST CENTRAL INDIANA

CITY           SKY/WX    TMP DP  RH WIND       PRES   REMARKS
CRAWFORDSVL +  SUNNY     82  66  56 CALM      30.02F
6HR MIN TEMP:  65; 6HR MAX TEMP:  82;

GREENCASTLE +  MOSUNNY   82  72  69 NW5       30.02F
LAFAYETTE      PTSUNNY   83  65  54 N3        30.01F
6HR MIN TEMP:  66; 6HR MAX TEMP:  86;

TERRE HAUTE    MOSUNNY   86  69  56 VRB5      30.01S
6HR MIN TEMP:  71; 6HR MAX TEMP:  86;


$$

INZ030>032-037>040-046>048-054>057-064-065-271900-
CENTRAL INDIANA

CITY           SKY/WX    TMP DP  RH WIND       PRES   REMARKS
ANDERSON       MOSUNNY   84  63  48 NE6       30.02
COLUMBUS       MOSUNNY   82  75  78 N7        30.01F
INDIANAPOLIS   MOSUNNY   88  65  46 VRB3      30.00F
6HR MIN TEMP:  74; 6HR MAX TEMP:  88;

-EAGLE CREEK   SUNNY     87  64  46 VRB3      30.00F
6HR MIN TEMP:  73; 6HR MAX TEMP:  87;

KOKOMO *+      SUNNY     88  63  42 NW5       30.02F
6HR MIN TEMP:  68; 6HR MAX TEMP:  88;

MARION +       SUNNY     83  63  50 W3        30.03F
MT COMFORT *+  SUNNY     84  66  54 CALM      30.02F
SHELBYVILLE    CLOUDY    86  66  51 CALM      30.01S
6HR MIN TEMP:  71; 6HR MAX TEMP:  88;

ZIONSVILLE +   SUNNY     82  65  55 CALM      30.03F
6HR MIN TEMP:  67; 6HR MAX TEMP:  82;


$$

INZ033-034-041-042-049-050-058-059-271900-
EAST CENTRAL INDIANA

CITY           SKY/WX    TMP DP  RH WIND       PRES   REMARKS
MUNCIE         SUNNY     87  63  44 NW6       30.02F
6HR MIN TEMP:  70; 6HR MAX TEMP:  87;


$$

INZ060-061-067>069-081>083-085>088-271900-
SOUTHWEST INDIANA

CITY           SKY/WX    TMP DP  RH WIND       PRES   REMARKS
EVANSVILLE     PTSUNNY   87  75  67 S5        29.98F HX  96
6HR MIN TEMP:  76; 6HR MAX TEMP:  89;

HUNTINGBURG *+ MOSUNNY   88  75  66 S5        29.98F HX  97
6HR MIN TEMP:  73; 6HR MAX TEMP:  88;

WASHINGTON +   MOSUNNY   86  75  71 MISG      29.99F HX  95
6HR MIN TEMP:  74; 6HR MAX TEMP:  86;


$$

INZ062-063-066-070>080-084-089>092-271900-
SOUTH CENTRAL AND SOUTHEAST INDIANA

CITY           SKY/WX    TMP DP  RH WIND       PRES   REMARKS
BLOOMINGTON    CLOUDY    84  71  65 VRB3      30.01F
6HR MIN TEMP:  73; 6HR MAX TEMP:  85;

MADISON *+     CLOUDY    84  72  65 NW6       30.03S
NORTH VERNON + CLOUDY    86  77  74 CALM      30.01F HX  97
SEYMOUR +      CLOUDY    86  72  62 CALM      30.00F

$$





USA.gov is the U.S. government's official web portal to all federal, state and local government web resources and services.